Flag for Canada Weather past 2 weeks in Rainy River, Ontario, Canada

Now
47 °F

Sunny.


Feels Like: 42 °F
Forecast: 31 / 55 °F
Wind: 9 mph from Southeast

Location: Baudette International Airport


UV Index: 0 (Low)

Visibility: 10 mi


Pressure: 30.06 "Hg

Humidity: 42%

Dew point: 25 °F

Location of Rainy RiverLocation

Historic Weather in Rainy River

°F

Rainy River temperature yesterday

Maximum temperature yesterday: 52 °F (at 4:53 PM)
Minimum temperature yesterday: 26 °F (at 4:53 AM)
Average temperature yesterday: 39 °F

Past Weeks' High & Low Weather Summary

 TemperatureHumidityPressure
High62 °F (Apr 20, 5:53 PM)100% (Apr 12, 11:02 PM)30.40 "Hg (Apr 12, 11:02 PM)
Low5 °F (Apr 15, 6:53 AM)25% (Apr 16, 4:53 PM)29.37 "Hg (Apr 9, 3:53 PM)
Average35 °F61%30.03 "Hg
* Reported Apr 8 10:01 AM — Apr 23 9:53 AM, Rainy River, Weather by CustomWeather, © 2014

Note: Actual official high and low records may vary slightly from our data, if they occured in-between our weather recording intervals... More about our weather records

Advertising

Historic Weather Conditions — Data for Previous 24 hours

 ConditionsComfort  
Time TempWeatherWind HumidityBarometerVisibility
9:53 AM
Apr 23
47 °FSunny.9 mph42%30.06 "Hg10 mi
8:53 AM42 °FSunny.8 mph51%30.07 "Hg10 mi
7:53 AM37 °FSunny.7 mph60%30.09 "Hg10 mi
6:53 AM33 °FClear.6 mph66%30.09 "Hg10 mi
5:53 AM34 °FClear.8 mph61%30.08 "Hg10 mi
4:53 AM32 °FClear.7 mph66%30.09 "Hg10 mi
3:53 AM33 °FClear.6 mph63%30.09 "Hg10 mi
2:53 AM34 °FClear.6 mph61%30.09 "Hg10 mi
1:53 AM35 °FClear.6 mph59%30.11 "Hg10 mi
12:53 AM36 °FClear.5 mph57%30.11 "Hg10 mi
11:53 PM
Apr 22
36 °FClear.6 mph64%30.11 "Hg10 mi
10:53 PM36 °FClear.5 mph64%30.10 "Hg10 mi
9:53 PM39 °FClear.6 mph55%30.10 "Hg10 mi
8:53 PM43 °FSunny.3 mph47%30.09 "Hg10 mi
6:53 PM51 °FSunny.6 mph31%30.09 "Hg10 mi
5:53 PM52 °FSunny.6 mph26%30.11 "Hg10 mi
4:53 PM52 °FSunny.7 mph27%30.12 "Hg10 mi
3:53 PM51 °FSunny.6 mph32%30.13 "Hg10 mi
2:53 PM51 °FSunny.6 mph38%30.14 "Hg10 mi
1:53 PM48 °FSunny.3 mph39%30.15 "Hg10 mi
12:53 PM46 °FSunny.6 mph44%30.17 "Hg10 mi
11:53 AM44 °FSunny.3 mph45%30.19 "Hg10 mi
10:53 AM43 °FSunny.No wind49%30.19 "Hg10 mi
Weather by CustomWeather, © 2014

See weather overview